Location: Bas Lanzent
(48.1360°N, 3.5871°W)
Time: 21:58:50
(UTC+00:00)

Cosmos 1943 - Pass Details

Date: 18 February 2020
Orbit: 832 x 851 km, 71.0° (Epoch: 29 March)

Event Time Altitude Azimuth Distance (km) Brightness Sun altitude
Rises 06:27:05 0° 221° (SW) 3,368 6.0 -9.0°
Reaches altitude 10° 06:29:34 10° 226° (SW) 2,439 5.2 -8.6°
Maximum altitude 06:35:02 53° 303° (WNW) 1,019 3.3 -7.7°
Drops below altitude 10° 06:40:34 10° 21° (NNE) 2,463 5.8 -6.7°
Sets 06:43:05 0° 26° (NNE) 3,405 6.6 -6.3°
